DW8295 Weather Reports


Display with metric or nautical units.
time (UTC)temp
F
wind
direction
speed
MPH
gust
MPH
rain 1hr
in
rain 24hr
in
rain mn
in
humidity
%
barometer
mb
20260901221554 65 153 0.0 0.0 0.00 0.00 0.00 92 1018.0
20260901221312 65 153 0.0 0.0 0.00 0.00 0.00 92 1017.9
20260901220803 65 153 0.0 0.0 0.00 0.00 0.00 92 1017.9
20260901220035 65 153 0.0 0.0 0.00 0.00 0.00 92 1017.8
20260901215528 65 153 0.0 1.0 0.00 0.00 0.00 92 1017.9
20260901215023 65 153 0.0 2.0 0.00 0.00 0.00 92 1017.9
20260901214516 66 150 0.0 2.0 0.00 0.00 0.00 91 1017.8
20260901214011 66 144 0.0 0.0 0.00 0.00 0.00 91 1017.9
20260901213505 66 144 0.0 0.0 0.00 0.00 0.00 91 1017.7
20260901212959 66 144 0.0 0.0 0.00 0.00 0.00 91 1017.6
20260901212453 66 144 0.0 0.0 0.00 0.00 0.00 91 1017.6
20260901211947 66 145 0.0 0.0 0.00 0.00 0.00 91 1017.6
20260901211441 66 144 0.0 0.0 0.00 0.00 0.00 91 1017.6
20260901210935 66 144 0.0 0.0 0.00 0.00 0.00 91 1017.6
20260901210430 66 144 0.0 0.0 0.00 0.00 0.00 91 1017.6
20260901205923 66 144 0.0 2.0 0.00 0.00 0.00 91 1017.6
20260901205417 66 144 0.0 2.0 0.00 0.00 0.00 90 1017.6
20260901204910 66 139 0.0 2.0 0.00 0.00 0.00 90 1017.5
20260901204405 66 139 0.0 2.0 0.00 0.00 0.00 90 1017.3
20260901203858 66 59 0.0 0.0 0.00 0.00 0.00 90 1017.2
20260901203352 67 59 0.0 0.0 0.00 0.00 0.00 90 1017.2
20260901203104 67 59 0.0 0.0 0.00 0.00 0.00 89 1017.2
20260901202340 67 46 0.0 0.0 0.00 0.00 0.00 89 1017.2
20260901201835 67 45 0.0 0.0 0.00 0.00 0.00 89 1017.2
20260901201329 67 45 0.0 1.0 0.00 0.00 0.00 89 1017.2
20260901201053 67 88 0.0 1.0 0.00 0.00 0.00 89 1017.1
20260901200534 67 82 0.0 1.0 0.00 0.00 0.00 88 1017.2
20260901195811 67 81 0.0 1.0 0.00 0.00 0.00 88 1017.2
20260901195306 67 80 0.0 1.0 0.00 0.00 0.00 89 1017.2
20260901194759 67 79 0.0 0.0 0.00 0.00 0.00 89 1017.2
20260901194253 66 80 0.0 1.0 0.00 0.00 0.00 89 1017.4
20260901193747 66 80 0.0 4.0 0.00 0.00 0.00 89 1017.5
20260901193240 66 80 0.0 4.0 0.00 0.00 0.00 88 1017.5
20260901192734 66 71 0.0 2.0 0.00 0.00 0.00 89 1017.6
20260901192227 66 62 0.0 2.0 0.00 0.00 0.00 88 1017.6
20260901191723 66 63 0.0 2.0 0.00 0.00 0.00 88 1017.5
20260901191216 66 85 0.0 3.0 0.00 0.00 0.00 89 1017.6
20260901190709 66 157 0.0 3.0 0.00 0.00 0.00 89 1017.5
20260901190202 66 63 0.0 3.0 0.00 0.00 0.00 88 1017.6
20260901185656 66 67 1.0 6.0 0.00 0.00 0.00 88 1017.6
20260901185150 66 63 1.0 6.0 0.00 0.00 0.00 87 1017.6
20260901184645 66 62 0.0 5.0 0.00 0.00 0.00 87 1017.6
20260901184138 67 76 0.0 3.0 0.00 0.00 0.00 87 1017.6
20260901183633 67 109 0.0 3.0 0.00 0.00 0.00 87 1017.6
20260901183347 67 134 1.0 6.0 0.00 0.00 0.00 88 1017.6
20260901182620 67 162 0.0 6.0 0.00 0.00 0.00 87 1017.5
20260901182115 67 57 1.0 3.0 0.00 0.00 0.00 88 1017.5
20260901181608 67 57 1.0 4.0 0.00 0.00 0.00 87 1017.4
20260901181103 67 55 0.0 4.0 0.00 0.00 0.00 87 1017.4
20260901180816 67 62 0.0 4.0 0.00 0.00 0.00 87 1017.3
20260901180311 67 60 1.0 4.0 0.00 0.00 0.00 85 1017.3
20260901175808 67 60 1.0 3.0 0.00 0.00 0.00 84 1017.3
20260901175038 68 60 0.0 3.0 0.00 0.00 0.00 83 1017.3
20260901174536 68 61 0.0 4.0 0.00 0.00 0.00 83 1017.3
20260901174027 68 59 1.0 4.0 0.00 0.00 0.00 83 1017.4
20260901173520 68 58 0.0 4.0 0.00 0.00 0.00 83 1017.3
20260901173015 68 87 0.0 3.0 0.00 0.00 0.00 84 1017.3
20260901172509 67 98 0.0 3.0 0.00 0.00 0.00 85 1017.4
20260901172002 67 89 0.0 2.0 0.00 0.00 0.00 83 1017.3
20260901171456 67 65 0.0 2.0 0.00 0.00 0.00 83 1017.3
20260901170952 67 63 0.0 3.0 0.00 0.00 0.00 83 1017.3
20260901170445 67 123 0.0 3.0 0.00 0.00 0.00 84 1017.2
20260901165938 67 117 0.0 3.0 0.00 0.00 0.00 83 1017.1
20260901165922 68 69 0.0 3.0 0.00 0.00 0.00 82 1017.2
20260901164926 67 63 0.0 2.0 0.00 0.00 0.00 83 1017.3
20260901164420 67 90 0.0 0.0 0.00 0.00 0.00 86 1017.4
20260901163914 66 82 0.0 0.0 0.00 0.00 0.00 85 1017.3
20260901163408 65 47 0.0 0.0 0.00 0.00 0.00 85 1017.5
20260901163126 65 47 0.0 2.0 0.00 0.00 0.00 85 1017.5
20260901162357 65 46 0.0 3.0 0.00 0.00 0.00 84 1017.5
20260901161851 65 45 0.0 3.0 0.00 0.00 0.00 83 1017.5
20260901161346 66 34 0.0 3.0 0.00 0.00 0.00 83 1017.5
20260901160839 66 32 0.0 3.0 0.00 0.00 0.00 84 1017.5
20260901160333 66 26 0.0 3.0 0.00 0.00 0.00 84 1017.6
20260901155828 66 336 0.0 6.0 0.00 0.00 0.00 84 1017.5
20260901155321 65 350 0.0 0.0 0.00 0.00 0.00 84 1017.6
20260901154815 65 350 0.0 1.0 0.00 0.00 0.00 84 1017.5
20260901154803 65 350 0.0 4.0 0.00 0.00 0.00 84 1017.5
20260901153803 65 53 0.0 4.0 0.00 0.00 0.00 85 1017.4
20260901153257 64 50 0.0 0.0 0.00 0.00 0.00 85 1017.4
20260901153240 64 49 0.0 1.0 0.00 0.00 0.00 84 1017.3
20260901152244 63 49 0.0 1.0 0.00 0.00 0.00 83 1017.3
20260901151738 63 48 0.0 1.0 0.00 0.00 0.00 84 1017.2
20260901151451 63 48 0.0 1.0 0.00 0.00 0.00 84 1017.2
20260901150726 63 47 0.0 1.0 0.00 0.00 0.00 84 1017.2
20260901150220 62 43 0.0 1.0 0.00 0.00 0.00 85 1017.1
20260901145716 62 39 0.0 2.0 0.00 0.00 0.00 85 1017.1
20260901145210 62 36 0.0 2.0 0.00 0.00 0.00 84 1017.0
20260901144704 62 49 0.0 2.0 0.00 0.00 0.00 83 1017.0
20260901144158 62 27 0.0 1.0 0.00 0.00 0.00 83 1016.9
20260901143650 62 5 0.0 0.0 0.00 0.00 0.00 84 1017.0
20260901143412 62 348 0.0 0.0 0.00 0.00 0.00 84 1017.1
20260901143122 62 348 0.0 0.0 0.00 0.00 0.00 84 1017.3
20260901142133 62 347 0.0 0.0 0.00 0.00 0.00 84 1017.6
20260901141853 62 347 0.0 1.0 0.00 0.00 0.00 84 1017.7
20260901141120 62 347 0.0 0.0 0.00 0.00 0.00 84 1017.7
20260901140615 62 343 0.0 0.0 0.00 0.00 0.00 84 1017.5
20260901140109 62 342 0.0 0.0 0.00 0.00 0.00 84 1017.5
20260901135602 61 342 0.0 0.0 0.00 0.00 0.00 83 1017.5
20260901135056 62 342 0.0 0.0 0.00 0.00 0.00 83 1017.7
20260901134551 62 342 0.0 0.0 0.00 0.00 0.00 83 1017.9
20260901134044 61 342 0.0 0.0 0.00 0.00 0.00 83 1017.8
20260901133540 61 342 0.0 0.0 0.00 0.00 0.00 83 1017.6
20260901133032 61 342 0.0 0.0 0.00 0.00 0.00 84 1017.6
20260901132527 61 342 0.0 0.0 0.00 0.00 0.00 83 1017.6
20260901132240 61 342 0.0 6.0 0.00 0.00 0.00 83 1017.5
20260901131521 61 355 0.0 6.0 0.00 0.00 0.00 83 1017.5
20260901131009 61 355 0.0 0.0 0.00 0.00 0.00 83 1017.6
20260901130510 61 355 0.0 0.0 0.00 0.00 0.00 83 1017.9
20260901130503 61 355 0.0 0.0 0.00 0.00 0.00 83 1017.6
20260901130351 61 355 0.0 0.0 0.00 0.00 0.00 83 1017.9
20260901130319 61 355 0.0 0.0 0.00 0.00 0.00 83 1017.8
20260901124448 61 355 0.0 0.0 0.00 0.00 0.00 83 1017.9
20260901123935 61 355 0.0 0.0 0.00 0.00 0.00 83 1017.8
20260901123651 61 0 0.0 0.0 0.00 0.00 0.00 84 1017.6
20260901122922 61 0 0.0 0.0 0.00 0.00 0.00 83 1017.5
20260901122416 61 0 0.0 2.0 0.00 0.00 0.00 84 1017.5
20260901121909 61 0 0.0 2.0 0.00 0.00 0.00 84 1017.4
20260901121407 61 355 0.0 0.0 0.00 0.00 0.00 84 1017.4
20260901120905 61 335 0.0 0.0 0.00 0.00 0.00 85 1017.5
20260901120403 60 334 0.0 3.0 0.00 0.00 0.00 85 1017.4
20260901120126 60 334 0.0 3.0 0.00 0.00 0.00 85 1017.3
20260901115401 60 333 0.0 0.0 0.00 0.00 0.00 86 1017.2
20260901114857 60 333 0.0 0.0 0.00 0.00 0.00 86 1017.3
20260901114356 60 333 0.0 0.0 0.00 0.00 0.00 86 1017.3
20260901114344 60 333 0.0 0.0 0.00 0.00 0.00 87 1017.4
20260901113840 60 331 0.0 0.0 0.00 0.00 0.00 87 1017.0
20260901112849 60 331 0.0 1.0 0.00 0.00 0.00 88 1017.3
20260901112343 60 329 0.0 1.0 0.00 0.00 0.00 88 1017.2
20260901111839 59 327 0.0 0.0 0.00 0.00 0.00 89 1017.1
20260901111333 59 331 0.0 0.0 0.00 0.00 0.00 90 1016.9
20260901111045 59 331 0.0 0.0 0.00 0.00 0.00 91 1017.0
20260901110318 58 329 0.0 0.0 0.00 0.00 0.00 92 1016.7
20260901105810 58 329 0.0 0.0 0.00 0.00 0.00 92 1017.0
20260901105310 58 329 0.0 1.0 0.00 0.00 0.00 93 1017.0
20260901105025 58 328 0.0 1.0 0.00 0.00 0.00 93 1017.0
20260901104532 58 332 0.0 0.0 0.00 0.00 0.00 93 1016.7
20260901103808 58 332 0.0 0.0 0.00 0.00 0.00 94 1016.7
20260901103307 58 332 0.0 0.0 0.00 0.00 0.00 94 1016.6
20260901102803 58 332 0.0 0.0 0.00 0.00 0.00 94 1016.5
20260901102301 58 332 0.0 0.0 0.00 0.00 0.00 95 1016.4
20260901101800 58 331 0.0 3.0 0.00 0.00 0.00 95 1016.3
20260901101523 58 327 0.0 3.0 0.00 0.00 0.00 95 1016.2
20260901100753 58 315 0.0 3.0 0.00 0.00 0.00 95 1016.3
20260901100248 58 312 0.0 3.0 0.00 0.00 0.00 95 1016.5
20260901095741 57 282 0.0 3.0 0.00 0.00 0.00 95 1016.5
20260901095235 57 281 0.0 3.0 0.00 0.00 0.00 95 1016.5
20260901094730 57 271 0.0 3.0 0.00 0.00 0.00 96 1016.3
20260901094224 56 265 0.0 2.0 0.00 0.00 0.00 96 1016.3
20260901093718 56 265 0.0 1.0 0.00 0.00 0.00 95 1016.3
20260901093211 56 265 0.0 1.0 0.00 0.00 0.00 95 1016.3
20260901092925 56 263 0.0 2.0 0.00 0.00 0.00 95 1016.5
20260901092208 56 264 0.0 2.0 0.00 0.00 0.00 95 1016.4
20260901091708 56 241 0.0 1.0 0.00 0.00 0.00 95 1016.5
20260901091208 56 241 0.0 0.0 0.00 0.00 0.00 95 1016.6
20260901090705 55 241 0.0 0.0 0.00 0.00 0.00 95 1016.6
20260901090207 55 241 0.0 0.0 0.00 0.00 0.00 95 1016.7
20260901085706 55 241 0.0 0.0 0.00 0.00 0.00 95 1016.7
20260901085423 55 241 0.0 0.0 0.00 0.00 0.00 95 1016.6
20260901084705 55 241 0.0 0.0 0.00 0.00 0.00 94 1016.5
20260901084651 55 241 0.0 0.0 0.00 0.00 0.00 95 1016.6
20260901083705 55 241 0.0 0.0 0.00 0.00 0.00 95 1016.5
20260901083202 56 241 0.0 0.0 0.00 0.00 0.00 95 1016.5
20260901082701 56 241 0.0 1.0 0.00 0.00 0.00 95 1016.5
20260901082201 55 241 0.0 2.0 0.00 0.00 0.00 95 1016.5
20260901081701 55 241 0.0 2.0 0.00 0.00 0.00 94 1016.6
20260901081424 55 216 0.0 1.0 0.00 0.00 0.00 94 1016.5
20260901080701 55 216 0.0 0.0 0.00 0.00 0.00 94 1016.5
20260901080419 55 216 0.0 0.0 0.00 0.00 0.00 94 1016.6
20260901075702 55 216 0.0 0.0 0.00 0.00 0.00 94 1016.7
20260901075201 55 216 0.0 0.0 0.00 0.00 0.00 94 1016.7
20260901074657 55 216 0.0 0.0 0.00 0.00 0.00 94 1016.7
20260901074419 56 216 0.0 0.0 0.00 0.00 0.00 94 1016.7
20260901073916 56 216 0.0 0.0 0.00 0.00 0.00 94 1016.8
20260901073157 56 216 0.0 0.0 0.00 0.00 0.00 94 1016.9
20260901072658 56 216 0.0 0.0 0.00 0.00 0.00 94 1016.9
20260901072157 56 216 0.0 0.0 0.00 0.00 0.00 94 1016.9
20260901071918 56 216 0.0 0.0 0.00 0.00 0.00 94 1016.9
20260901071420 56 216 0.0 0.0 0.00 0.00 0.00 94 1016.9
20260901070658 56 216 0.0 0.0 0.00 0.00 0.00 94 1016.9
20260901070153 56 216 0.0 0.0 0.00 0.00 0.00 94 1016.8
20260901065653 56 216 0.0 0.0 0.00 0.00 0.00 94 1016.7
20260901065153 56 216 0.0 0.0 0.00 0.00 0.00 94 1016.7
20260901064654 56 216 0.0 0.0 0.00 0.00 0.00 94 1016.7
20260901064153 56 216 0.0 0.0 0.00 0.00 0.00 94 1016.8
20260901063653 57 216 0.0 0.0 0.00 0.00 0.00 94 1016.8
20260901063152 57 216 0.0 0.0 0.00 0.00 0.00 94 1016.8
20260901062653 57 216 0.0 0.0 0.00 0.00 0.00 94 1016.9
20260901062153 57 216 0.0 0.0 0.00 0.00 0.00 94 1016.8
20260901061649 57 216 0.0 0.0 0.00 0.00 0.00 94 1017.0
20260901061149 57 216 0.0 0.0 0.00 0.00 0.00 94 1017.0
20260901060649 57 216 0.0 0.0 0.00 0.00 0.00 94 1017.1
20260901060149 57 216 0.0 0.0 0.00 0.00 0.00 94 1017.0
20260901055649 57 216 0.0 0.0 0.00 0.00 0.00 94 1017.0
20260901055151 57 216 0.0 0.0 0.00 0.00 0.00 94 1016.9
20260901054651 57 216 0.0 0.0 0.00 0.00 0.00 94 1016.8
20260901054150 57 216 0.0 0.0 0.00 0.00 0.00 94 1016.9
20260901053650 57 216 0.0 0.0 0.00 0.00 0.00 94 1016.9
20260901053144 57 216 0.0 0.0 0.00 0.00 0.00 94 1016.9
20260901052638 57 216 0.0 0.0 0.00 0.00 0.00 94 1016.8
20260901052131 57 216 0.0 0.0 0.00 0.00 0.00 94 1016.8
20260901051626 58 216 0.0 0.0 0.00 0.00 0.00 94 1016.9
20260901051120 58 216 0.0 0.0 0.00 0.00 0.00 94 1016.8
20260901050839 58 216 0.0 0.0 0.00 0.00 0.00 94 1016.9
20260901050107 58 216 0.0 0.0 0.00 0.00 0.00 94 1016.9
20260901045601 58 216 0.0 0.0 0.00 0.00 0.00 94 1016.9
20260901045055 58 216 0.0 0.0 0.00 0.00 0.00 94 1017.0
20260901044550 58 216 0.0 0.0 0.00 0.00 0.00 94 1017.0
20260901044043 58 216 0.0 0.0 0.00 0.00 0.00 94 1016.9
20260901043538 58 216 0.0 0.0 0.00 0.00 0.00 94 1017.0
20260901043031 58 216 0.0 0.0 0.00 0.00 0.00 93 1017.0
20260901042526 58 216 0.0 0.0 0.00 0.00 0.00 93 1017.1
20260901042240 58 216 0.0 0.0 0.00 0.00 0.00 93 1017.1
20260901041513 58 216 0.0 0.0 0.00 0.00 0.00 93 1017.1
20260901041006 59 216 0.0 0.0 0.00 0.00 0.00 93 1017.1
20260901040726 59 216 0.0 0.0 0.00 0.00 0.00 93 1017.1
20260901035956 59 216 0.0 0.0 0.00 0.00 0.00 93 1017.1
20260901035451 59 216 0.0 0.0 0.00 0.00 0.00 93 1017.2
20260901034943 59 216 0.0 0.0 0.00 0.00 0.00 93 1017.2
20260901034439 59 216 0.0 0.0 0.00 0.00 0.00 94 1017.2
20260901033931 59 216 0.0 0.0 0.00 0.00 0.00 93 1017.1
20260901033425 59 216 0.0 0.0 0.00 0.00 0.00 93 1017.1
20260901032921 59 216 0.0 0.0 0.00 0.00 0.00 93 1017.1
20260901032414 59 216 0.0 0.0 0.00 0.00 0.00 93 1017.1
20260901031908 59 216 0.0 0.0 0.00 0.00 0.00 93 1017.3
20260901031402 60 216 0.0 0.0 0.00 0.00 0.00 93 1017.3
20260901030857 60 216 0.0 0.0 0.00 0.00 0.00 93 1017.2
20260901030350 60 216 0.0 0.0 0.00 0.00 0.00 93 1017.3
20260901025843 60 216 0.0 0.0 0.00 0.00 0.00 92 1017.2
20260901025337 60 216 0.0 0.0 0.00 0.00 0.00 92 1017.2
20260901024832 60 216 0.0 0.0 0.00 0.00 0.00 92 1017.2
20260901024325 60 216 0.0 0.0 0.00 0.00 0.00 92 1017.2
20260901023820 60 216 0.0 0.0 0.00 0.00 0.00 92 1017.2
20260901023314 61 216 0.0 0.0 0.00 0.00 0.00 91 1017.2
20260901022809 61 216 0.0 0.0 0.00 0.00 0.00 91 1017.1
20260901022305 61 216 0.0 0.0 0.00 0.00 0.00 91 1017.2
20260901021756 61 216 0.0 0.0 0.00 0.00 0.00 91 1017.1
20260901021250 62 216 0.0 0.0 0.00 0.00 0.00 91 1017.1
20260901020743 62 216 0.0 0.0 0.00 0.00 0.00 91 1017.1
20260901020237 62 216 0.0 0.0 0.00 0.00 0.00 91 1017.1
20260901015732 62 216 0.0 1.0 0.00 0.00 0.00 91 1017.1
20260901015457 62 216 0.0 1.0 0.00 0.00 0.00 91 1017.0
20260901014719 62 216 0.0 1.0 0.00 0.00 0.00 91 1017.0
20260901014213 62 216 0.0 1.0 0.00 0.00 0.00 91 1017.0
20260901013708 62 216 0.0 1.0 0.00 0.00 0.00 91 1017.0
20260901013202 62 216 0.0 0.0 0.00 0.00 0.00 90 1017.0
20260901012655 62 216 0.0 0.0 0.00 0.00 0.00 90 1017.0
20260901012150 62 216 0.0 0.0 0.00 0.00 0.00 90 1017.1
20260901011645 62 216 0.0 0.0 0.00 0.00 0.00 89 1017.1
20260901011139 63 216 0.0 0.0 0.00 0.00 0.00 89 1017.1
20260901010631 63 216 0.0 0.0 0.00 0.00 0.00 89 1017.2
20260901010125 63 216 0.0 0.0 0.00 0.00 0.00 89 1017.2
20260901005619 63 216 0.0 0.0 0.00 0.00 0.00 89 1017.1
20260901005114 63 216 0.0 1.0 0.00 0.00 0.00 89 1017.1
20260901004608 63 216 0.0 1.0 0.00 0.00 0.00 89 1017.1
20260901004102 63 216 0.0 1.0 0.00 0.00 0.00 89 1017.1
20260901003556 63 216 0.0 1.0 0.00 0.00 0.00 88 1017.0
20260901003050 64 215 0.0 1.0 0.00 0.00 0.00 89 1017.1
20260901002543 64 215 0.0 2.0 0.00 0.00 0.00 89 1017.1
20260901002037 64 215 0.0 2.0 0.00 0.00 0.00 89 1017.1
20260901001532 64 215 0.0 2.0 0.00 0.00 0.00 89 1017.0
20260901001223 64 216 0.0 3.0 0.00 0.00 0.00 88 1017.0
20260901001112 64 216 0.0 2.0 0.00 0.00 0.00 89 1016.9
20260901000013 64 217 0.0 3.0 0.00 0.00 0.00 88 1017.0
20260831235508 64 215 0.0 3.0 0.00 0.00 0.00 88 1016.9
20260831235002 64 219 0.0 3.0 0.00 0.00 0.00 87 1016.9
20260831234456 64 219 0.0 4.0 0.00 0.00 0.00 87 1016.9
20260831233949 64 219 0.0 4.0 0.00 0.00 0.00 87 1017.0
20260831233443 64 219 1.0 4.0 0.00 0.00 0.00 86 1017.1
20260831232937 64 220 1.0 5.0 0.00 0.00 0.00 85 1017.2
20260831232432 64 227 1.0 5.0 0.00 0.00 0.00 85 1017.2
20260831231926 65 251 0.0 3.0 0.00 0.00 0.00 85 1017.3
20260831231422 65 250 1.0 3.0 0.00 0.00 0.00 84 1017.4
20260831230921 65 226 1.0 5.0 0.00 0.00 0.00 84 1017.3
20260831230421 65 190 1.0 5.0 0.00 0.00 0.00 84 1017.4
20260831225920 65 200 0.0 3.0 0.00 0.00 0.00 83 1017.4
20260831225421 65 200 1.0 5.0 0.00 0.00 0.00 82 1017.3
20260831224919 66 200 2.0 5.0 0.00 0.00 0.00 81 1017.2
20260831224419 66 161 2.0 6.0 0.00 0.00 0.00 81 1017.2
20260831224143 66 173 2.0 6.0 0.00 0.00 0.00 80 1017.2
20260831223418 66 197 2.0 7.0 0.00 0.00 0.00 79 1017.3
20260831223138 66 171 2.0 8.0 0.00 0.00 0.00 79 1017.4
20260831222417 66 168 2.0 8.0 0.00 0.00 0.00 79 1017.3
20260831221917 66 219 2.0 8.0 0.00 0.00 0.00 79 1017.3